Theta_e
298 295 295 297 297 296 296 297 296 297 297 297 297 297 297 296 296 296 296 296 296 296 296 296 296 296 296 296 295 295 294 294 294 294 294 294 294 294 293 293 292 292 291 291 290 290 289 289 288 288 288 287 287 287 286 286 286 286 286 286 285 285
297 295 296 296 297 297 296 296 296 296 296 296 297 297 296 296 296 295 295 296 296 295 295 295 295 295 295 295 295 295 294 294 294 293 293 294 294 293 293 293 292 292 292 291 291 290 289 288 288 288 288 287 287 287 286 286 286 286 286 285 285 284
296 296 297 296 297 297 297 297 296 296 296 296 296 295 296 296 295 295 295 295 295 295 295 295 295 295 295 294 294 294 294 294 294 293 293 293 293 293 293 292 292 292 292 291 291 290 289 289 288 287 287 287 286 286 286 286 286 286 285 285 284 284
296 297 297 297 297 296 296 297 296 297 296 296 295 295 295 295 295 295 295 294 294 294 294 294 294 294 294 294 294 294 294 294 294 293 293 293 292 292 292 292 292 292 291 291 291 290 289 289 288 288 287 286 286 286 286 286 286 285 285 284 284 284
296 296 296 296 296 296 296 296 296 296 296 296 296 295 295 295 294 294 294 294 294 294 294 293 294 294 294 294 294 294 294 294 293 293 293 292 292 292 292 292 292 291 291 291 290 290 289 289 288 287 287 286 286 286 285 285 285 285 285 284 284 284
295 296 295 296 295 295 295 295 296 295 296 296 296 295 295 295 295 294 294 294 294 294 294 293 293 293 293 293 293 294 294 294 293 293 292 292 292 291 291 291 291 291 290 290 290 289 289 289 288 287 286 286 286 286 285 285 285 285 285 285 284 284
295 295 295 295 295 295 294 294 295 295 294 295 295 295 295 295 295 295 294 294 293 293 293 293 293 293 293 293 293 294 294 293 293 292 292 291 291 291 291 291 290 290 290 290 289 289 289 288 288 287 286 286 286 285 285 285 285 285 285 285 285 284
294 294 294 294 294 294 294 293 294 294 293 293 293 293 294 294 295 294 294 294 293 293 293 293 293 293 293 293 293 294 293 292 292 292 291 291 291 290 290 290 290 290 289 290 289 289 289 288 287 287 286 286 285 285 285 285 285 285 284 284 284 284
293 293 293 293 293 293 293 293 293 293 293 292 292 292 292 293 293 293 294 294 293 293 293 292 292 293 293 293 293 293 292 292 292 291 291 291 290 290 290 289 289 289 289 289 289 289 288 288 287 286 286 286 285 284 284 284 284 284 284 284 284 284
293 293 293 293 293 293 293 292 292 292 292 291 291 291 291 292 293 293 293 293 293 293 293 293 293 293 293 293 292 292 292 292 292 291 291 290 290 290 290 289 289 289 288 288 288 288 288 287 287 286 286 285 285 284 284 284 284 283 283 283 283 283
292 292 292 292 292 292 292 292 292 291 291 291 290 290 291 291 292 292 293 293 292 292 293 293 293 293 293 293 292 292 291 291 291 291 290 290 290 289 289 289 289 288 288 288 287 287 287 287 287 286 286 285 284 284 283 283 283 283 282 282 282 282
292 291 291 292 292 292 291 291 291 291 291 290 290 290 290 291 291 291 292 292 292 292 292 292 292 292 292 292 292 291 291 291 291 290 290 290 289 289 288 288 288 287 287 287 287 286 286 286 286 286 286 286 285 284 283 282 282 282 282 282 281 281
291 291 291 291 291 291 291 291 290 290 290 290 290 290 290 290 290 290 291 291 292 292 292 292 292 292 292 292 291 291 291 290 290 290 290 289 288 288 288 287 287 287 287 287 286 286 286 286 286 286 285 285 285 284 283 282 282 282 281 281 281 280
291 291 291 291 291 291 290 290 290 290 290 289 289 290 290 290 290 290 290 291 290 291 291 291 290 291 291 291 291 291 290 290 290 289 289 288 288 287 287 287 287 286 286 286 286 286 285 285 285 285 285 285 285 284 284 283 282 281 281 281 280 280
291 291 290 290 290 290 289 289 289 289 289 289 289 289 290 289 289 289 290 290 290 290 290 290 290 289 290 290 290 290 290 289 289 289 288 288 288 287 287 286 286 286 286 285 285 285 285 285 285 284 284 284 284 284 283 282 282 281 281 280 280 280
290 290 289 289 289 288 288 288 288 288 288 288 289 289 289 289 289 289 289 289 289 289 289 289 289 289 289 289 290 289 289 289 289 288 288 288 287 286 286 286 285 285 285 285 285 285 285 284 284 284 284 284 284 284 283 282 281 281 280 280 280 280
289 289 288 288 288 287 287 287 287 286 286 287 288 288 288 288 288 288 289 288 288 288 288 288 289 288 288 289 289 289 288 288 288 288 287 287 286 286 286 285 285 285 285 285 285 284 284 284 284 284 284 284 284 284 283 282 281 280 280 279 279 280
288 287 287 287 286 286 286 286 285 285 285 286 286 286 287 287 288 288 288 288 287 287 287 287 287 288 288 288 288 288 288 288 288 287 287 286 286 286 285 285 285 285 284 284 284 284 284 284 283 283 283 284 284 284 283 281 280 279 279 278 278 278
287 286 286 286 285 285 285 284 283 284 284 284 284 284 285 286 287 287 287 287 287 287 286 286 287 287 288 288 287 287 288 287 287 287 286 286 285 285 285 285 284 284 284 284 284 284 283 283 283 283 283 284 284 284 283 281 279 279 278 278 277 277
286 285 285 284 283 283 283 282 282 282 282 283 283 283 284 285 286 286 286 286 286 286 287 287 286 287 287 287 287 287 287 287 287 286 286 285 285 285 284 284 284 284 284 284 283 283 283 283 282 282 283 284 285 285 283 280 279 278 277 277 276 276
285 284 284 283 282 282 282 281 281 281 281 281 281 282 283 284 284 284 284 284 285 286 287 287 286 286 286 286 287 287 286 286 286 286 286 285 285 284 284 284 283 283 283 283 283 283 283 282 282 282 284 285 285 285 283 280 278 277 276 276 275 275
284 283 283 282 281 281 280 279 280 280 280 280 280 281 282 282 282 281 280 281 284 286 287 286 286 285 285 286 286 286 286 286 286 285 285 285 284 284 283 283 283 283 282 282 282 282 282 282 281 282 284 285 286 285 282 280 278 277 276 275 275 275
282 282 282 281 280 280 279 279 279 278 279 279 279 280 280 280 279 278 278 280 284 285 285 284 284 285 285 285 286 286 286 286 285 285 285 284 284 283 283 282 282 282 282 281 281 281 281 281 281 282 283 285 286 285 282 280 278 277 276 275 275 275
281 281 280 280 279 278 278 278 278 277 277 278 278 279 278 278 277 276 277 280 282 282 281 282 282 283 284 284 285 285 285 285 285 284 284 283 283 282 282 282 281 281 280 280 280 280 280 280 280 281 283 285 286 284 282 280 279 278 277 276 275 275
279 279 279 278 278 277 277 277 276 276 277 277 277 277 276 275 275 275 277 279 280 279 278 279 280 281 283 283 284 284 284 284 284 283 283 283 282 281 281 280 280 280 279 279 279 279 279 279 279 280 281 284 286 284 282 281 280 279 278 277 276 276
278 278 277 277 276 276 276 276 275 275 275 276 275 275 274 273 274 275 276 277 277 276 276 276 277 279 281 282 283 283 283 283 283 282 282 282 281 280 280 279 279 278 278 277 277 277 278 278 278 279 280 283 285 285 282 281 280 279 278 277 277 276
276 276 276 276 275 275 275 275 274 274 274 274 274 273 272 272 273 274 275 275 274 274 274 274 275 276 279 281 282 282 282 283 282 281 281 280 280 279 279 278 278 277 277 277 276 276 277 277 277 278 279 281 284 285 283 281 281 280 279 277 277 276
275 275 274 274 275 274 274 274 273 273 273 273 272 271 271 272 272 272 272 271 271 271 272 273 274 275 277 280 281 281 282 282 282 281 280 279 279 279 279 278 277 277 277 277 276 276 276 276 276 277 278 279 282 284 284 282 281 281 279 277 277 276
274 274 273 274 274 274 273 273 272 272 272 271 270 270 270 270 270 270 269 269 269 270 270 272 273 274 277 279 280 281 281 281 281 280 279 279 278 278 278 278 278 277 277 277 277 276 275 275 275 276 277 278 280 283 284 283 281 281 279 277 276 276
273 273 273 273 273 272 272 272 271 271 270 269 269 269 269 268 268 268 268 268 268 269 270 271 273 274 276 278 280 280 280 280 280 280 279 279 279 279 278 278 278 277 277 277 277 276 274 274 275 275 276 277 279 282 284 283 281 281 279 277 276 276
272 272 272 272 272 271 271 270 270 269 269 268 268 267 267 266 266 266 266 267 267 268 270 271 272 274 276 277 279 280 280 280 280 280 280 280 280 280 280 279 279 278 278 278 277 276 274 274 274 275 276 277 278 281 283 283 282 280 278 277 276 276
271 271 271 270 270 270 269 269 268 268 267 267 266 266 265 265 265 265 265 266 267 268 270 271 273 274 276 277 278 279 279 280 280 280 280 280 280 280 280 280 280 279 279 278 278 277 276 276 276 276 276 277 278 281 282 283 282 280 278 277 277 276
270 270 269 269 269 268 268 267 267 266 266 265 265 264 264 264 264 264 265 265 266 267 269 270 272 273 274 276 277 278 279 279 279 279 280 280 280 279 279 280 280 280 279 278 278 277 277 277 276 276 276 277 278 280 282 282 281 279 278 277 277 276
269 268 268 267 267 266 266 265 265 265 264 264 263 263 263 263 263 263 264 264 265 266 267 269 270 272 274 276 276 277 278 278 278 278 279 279 280 280 279 279 280 280 279 279 278 277 277 276 276 276 277 277 278 280 282 282 281 279 278 278 277 275
267 266 266 265 265 264 264 263 263 263 263 263 262 262 262 262 263 263 263 263 264 265 267 269 270 272 274 276 277 278 278 278 278 278 278 278 279 279 280 280 280 280 280 279 279 278 277 276 276 277 277 278 279 280 281 282 281 280 279 278 276 274
264 264 264 263 263 263 262 262 262 262 262 262 262 262 262 262 262 263 263 264 265 266 268 269 270 271 272 273 274 276 278 278 278 278 278 278 277 278 279 279 280 280 280 280 280 279 278 277 277 277 277 278 279 280 281 282 281 280 279 278 275 273
262 262 262 262 262 261 261 261 261 262 262 262 262 262 262 262 262 263 264 265 266 267 267 268 268 268 269 270 271 274 276 278 278 278 277 277 277 277 278 278 279 279 280 280 280 280 279 278 278 278 278 279 279 280 281 282 281 280 280 277 274 273
261 261 261 261 261 261 261 261 261 261 262 262 262 262 262 262 263 263 264 264 265 265 265 265 266 267 269 270 272 274 276 278 278 277 277 277 277 277 277 278 278 278 279 280 280 280 279 279 278 278 279 279 279 280 281 281 280 280 278 275 273 273
Wind_Speed
14 20 24 24 21 17 13 11 11 13 16 18 20 23 25 27 29 31 33 35 36 37 37 39 40 41 41 40 39 37 38 39 40 39 40 40 39 40 40 40 41 42 43 44 44 45 44 44 45 45 44 44 43 42 40 39 37 36 34 33 31 29
17 23 26 27 26 23 21 18 16 16 17 18 20 22 24 25 26 29 32 35 36 35 35 37 39 39 38 38 38 38 39 40 39 39 39 39 40 41 41 41 42 43 44 44 45 45 44 44 44 44 44 44 43 43 41 40 39 37 36 34 32 30
19 26 29 29 30 31 29 26 23 22 22 22 23 24 25 26 28 29 31 33 33 34 36 37 37 37 37 37 37 38 39 39 40 40 39 39 40 41 41 41 42 43 44 45 45 46 46 46 46 45 45 44 44 43 42 41 40 39 37 35 33 32
18 25 30 32 34 35 35 33 31 30 29 28 27 25 26 28 29 29 29 30 30 33 35 34 34 35 36 37 37 38 38 39 40 40 39 40 40 40 41 41 42 42 43 44 45 46 46 47 47 47 47 46 45 44 43 43 42 40 38 37 36 35
17 22 25 27 29 31 33 34 33 33 34 34 32 28 27 28 28 28 29 30 32 33 33 33 34 34 35 36 38 40 40 40 41 41 41 41 40 40 41 42 42 42 43 44 44 45 46 47 47 48 48 48 47 46 45 44 44 43 41 40 39 38
17 19 21 23 25 26 29 30 31 32 33 34 34 32 31 29 28 28 30 31 34 34 34 35 36 35 35 38 40 42 43 43 42 42 43 42 42 42 42 41 42 42 42 43 44 45 46 47 47 47 48 48 48 48 47 46 45 45 44 44 42 41
15 16 19 22 23 25 25 26 28 30 30 32 32 33 33 33 31 30 29 31 33 33 34 36 36 36 38 40 41 43 44 43 42 42 42 42 42 42 42 42 43 43 43 45 46 47 47 47 47 48 48 48 48 48 48 47 47 47 46 45 45 44
15 16 21 23 25 26 26 25 26 27 28 30 31 32 33 34 34 33 31 31 31 32 33 35 35 37 40 42 44 44 42 41 41 41 41 42 42 42 42 43 44 45 46 46 46 47 47 46 47 48 48 49 48 48 48 48 48 48 48 47 46 45
15 17 21 25 27 28 29 28 27 27 27 28 31 33 33 34 35 34 32 31 31 32 33 34 35 38 41 43 44 44 41 40 40 41 42 43 43 43 43 44 45 46 47 47 46 46 46 46 46 47 48 49 49 49 49 49 48 48 48 47 47 46
14 15 19 24 27 29 30 30 31 31 30 30 32 34 34 35 35 34 33 30 29 31 33 35 37 39 41 43 43 41 40 39 40 42 43 42 43 45 46 46 46 45 45 46 46 47 47 46 47 48 48 49 50 50 50 50 49 48 47 46 46 46
12 13 17 22 25 28 30 30 31 33 33 35 36 36 36 35 34 34 34 32 30 30 32 35 37 39 40 42 41 40 40 40 40 41 42 43 44 45 45 45 45 44 43 44 45 46 47 48 49 51 51 51 51 50 50 49 49 48 47 46 45 45
10 11 15 20 23 26 28 29 30 31 31 34 36 37 38 37 35 34 34 34 34 35 33 33 35 37 39 40 40 40 40 39 39 39 41 43 44 43 42 41 41 42 43 43 44 44 46 48 50 52 53 53 52 50 48 47 47 47 46 45 44 43
11 11 14 18 22 24 25 27 29 30 31 33 35 36 37 36 35 34 33 32 35 37 36 34 33 35 37 38 38 39 39 38 38 39 40 41 41 40 39 39 41 43 43 43 43 44 46 48 49 51 52 53 53 51 48 47 46 45 45 44 44 44
12 12 15 19 23 25 27 28 29 29 32 35 36 36 36 35 34 34 32 32 35 37 37 36 35 33 34 36 37 37 37 37 37 37 38 38 38 38 37 39 41 42 41 41 42 44 45 46 47 49 51 52 53 52 49 47 45 45 44 44 43 43
11 13 17 21 23 26 28 30 29 29 32 34 35 35 35 35 35 34 33 34 35 37 38 39 37 34 33 34 35 35 34 33 35 36 36 36 36 35 37 39 39 39 39 39 40 42 43 42 43 46 48 50 51 52 49 46 44 45 44 44 43 43
12 16 19 21 23 26 28 28 28 29 31 32 32 32 32 33 34 32 32 34 35 36 37 39 38 36 35 33 32 31 30 31 33 33 33 33 32 33 36 37 37 37 38 39 40 40 40 40 42 44 46 48 49 50 49 46 43 43 43 43 44 44
13 17 19 21 23 26 27 27 29 31 32 31 31 31 30 31 32 30 30 33 35 36 36 37 37 37 37 35 31 28 28 29 30 31 30 30 31 34 35 36 37 38 38 39 39 38 38 40 41 42 44 47 47 48 47 44 41 39 39 40 43 44
15 17 19 21 23 24 24 26 28 31 32 31 30 30 30 29 29 28 29 32 34 36 37 36 36 36 37 36 32 28 27 28 29 29 29 29 30 31 32 34 35 37 37 38 38 38 38 38 39 40 42 45 45 44 43 42 39 37 36 37 40 41
16 18 20 21 22 23 23 26 29 29 29 30 29 29 29 28 27 27 29 32 34 36 37 37 36 36 35 35 32 29 29 28 27 27 26 27 28 29 30 32 33 34 35 36 37 38 37 35 37 39 40 42 42 40 39 39 37 35 34 35 38 40
16 18 18 19 21 22 23 26 28 27 27 27 27 28 28 27 27 28 29 32 34 35 36 37 36 35 34 33 31 30 29 27 26 25 25 26 27 28 29 30 30 31 33 35 37 38 37 36 36 38 40 40 40 39 39 39 37 34 33 33 34 36
17 17 17 18 20 22 24 26 27 25 25 27 27 26 26 27 28 29 31 33 34 34 34 34 34 34 33 32 31 30 28 27 25 24 24 25 26 26 26 27 28 29 30 32 35 36 36 36 36 38 39 39 39 40 40 39 37 34 32 32 33 34
18 17 17 18 20 23 24 25 25 24 24 27 27 25 25 27 29 31 33 34 33 31 32 33 33 34 34 33 32 31 28 26 24 23 23 25 26 26 25 25 26 27 28 29 31 33 35 35 35 37 38 38 38 40 40 40 38 35 32 32 34 34
19 19 20 22 22 24 24 24 24 23 24 24 25 25 28 30 32 34 36 34 31 30 32 33 33 34 34 34 33 31 29 25 23 23 23 24 24 24 23 24 25 25 26 27 28 30 32 33 34 36 37 37 38 40 41 41 39 37 35 34 34 34
20 21 24 26 26 26 26 24 23 24 24 23 24 26 29 33 35 36 36 32 30 31 33 34 34 34 34 34 33 31 29 26 22 21 22 22 22 22 22 23 23 23 23 24 26 29 30 31 33 35 36 36 37 37 39 41 40 38 37 36 34 35
20 23 26 29 29 29 27 24 24 25 24 24 26 28 30 33 36 37 35 32 31 33 34 35 36 35 33 33 32 30 29 26 22 20 20 20 21 21 20 21 21 21 20 21 23 26 28 29 31 33 35 36 36 35 36 40 40 38 39 38 35 36
20 24 28 32 33 31 28 25 25 26 28 29 29 30 32 35 36 35 34 33 34 37 37 37 37 36 33 32 31 28 28 26 22 20 20 20 20 19 18 19 19 19 18 19 21 24 27 28 29 32 34 35 36 34 32 36 39 39 38 37 34 35
21 24 29 34 36 32 29 26 24 25 31 33 31 32 35 36 34 32 33 36 39 41 41 40 39 37 34 32 29 27 26 25 23 21 20 20 19 19 18 17 18 19 18 18 20 21 25 27 27 30 34 36 37 35 32 33 38 40 38 36 33 33
23 24 27 33 37 34 30 28 26 27 31 34 34 34 35 34 33 33 35 39 42 42 41 41 40 37 34 31 28 27 27 25 24 22 21 20 20 19 18 17 18 19 18 18 19 20 23 26 27 28 32 35 36 35 33 33 35 36 36 35 32 30
23 24 24 30 36 36 32 31 32 31 33 34 35 35 34 34 34 35 37 39 41 41 41 39 37 35 33 31 28 27 26 26 25 23 21 21 20 19 19 19 18 18 18 18 19 21 24 27 27 26 28 30 32 32 31 32 34 34 33 32 30 27
23 24 24 28 34 36 34 34 36 36 36 36 35 33 34 36 36 36 39 41 40 37 36 35 34 34 33 32 29 26 25 25 25 25 25 26 25 22 21 21 21 21 22 21 20 21 25 27 28 28 29 31 32 32 31 32 34 34 34 35 32 29
25 25 27 31 35 35 36 37 39 39 37 35 35 33 33 37 38 39 41 42 38 34 32 32 32 32 31 31 29 27 27 27 27 28 30 31 31 30 28 26 25 27 28 25 24 26 29 30 31 33 34 34 34 34 32 31 33 34 33 35 35 33
27 28 30 34 35 35 37 40 43 42 38 34 34 33 34 37 38 37 38 37 34 32 31 29 30 30 28 28 27 26 27 29 29 30 31 31 31 33 32 31 29 30 30 29 29 31 34 35 34 32 31 32 33 34 32 30 32 33 32 33 36 36
29 29 31 34 36 36 38 41 45 45 41 37 34 33 34 36 34 32 34 34 32 31 29 28 29 29 28 28 28 26 25 25 25 27 30 30 28 27 28 29 29 28 28 29 30 29 30 31 30 27 28 31 33 34 33 29 29 32 34 35 37 36
30 31 32 35 37 38 40 43 46 46 42 37 34 32 34 36 32 31 34 36 33 31 29 28 28 28 26 24 25 24 23 22 20 20 23 26 26 25 25 26 27 26 25 25 27 27 26 26 25 25 29 32 33 35 35 31 31 34 36 38 39 35
32 34 36 37 39 41 42 44 45 43 39 36 34 33 35 37 34 33 35 35 31 28 27 27 26 25 22 20 20 21 21 19 16 14 14 18 22 25 26 26 26 27 26 24 25 26 26 26 26 27 29 32 34 37 37 34 34 37 39 40 38 33
35 37 39 40 41 41 41 42 43 41 39 38 37 35 35 36 35 35 35 34 30 27 25 23 22 22 22 23 23 23 23 21 20 17 15 13 13 16 20 23 25 27 28 26 26 26 25 25 27 28 30 32 34 37 38 36 35 38 40 41 38 32
38 39 40 40 40 40 41 42 42 40 38 38 38 36 36 35 34 34 34 33 30 27 25 25 27 28 29 29 28 27 26 23 21 20 18 15 12 10 14 19 23 26 27 27 27 27 26 26 27 28 31 33 34 37 39 36 33 34 36 36 34 32
39 39 40 39 39 39 39 41 41 39 38 39 39 38 37 35 34 33 34 34 33 33 33 33 32 32 31 29 27 27 26 24 23 20 19 19 17 15 14 16 19 23 26 27 28 27 26 27 27 28 32 34 35 38 40 36 31 29 29 29 30 32
Wind_Direction
359 355 354 355 351 339 323 306 280 258 250 247 245 243 239 236 232 228 226 225 224 225 224 223 222 222 221 221 221 222 223 224 222 220 219 217 216 215 215 214 213 212 212 212 212 213 213 213 214 213 213 213 213 213 214 214 214 213 212 212 211 210
7 7 3 2 2 355 346 336 319 301 289 276 268 262 257 251 245 239 236 233 230 229 229 228 227 226 225 224 222 222 224 225 225 224 222 220 218 217 215 214 213 212 211 211 211 211 211 211 211 212 212 212 212 212 212 213 213 213 213 212 211 210
10 13 13 13 14 11 7 359 345 331 317 303 292 281 272 264 257 251 248 244 240 237 235 233 231 230 229 228 226 226 226 226 227 227 226 224 221 218 216 214 213 213 212 210 210 210 210 210 210 211 211 210 211 211 212 212 212 211 212 211 209 209
11 14 15 16 15 12 10 8 2 355 344 334 322 304 290 279 268 262 259 257 253 249 246 242 238 235 232 230 229 229 228 228 228 228 227 226 224 221 218 216 214 214 212 210 210 210 210 210 209 209 209 209 209 209 210 211 210 209 209 209 209 208
8 12 15 16 15 11 8 6 5 3 359 354 345 331 317 301 284 273 267 263 260 257 255 252 247 242 238 234 232 231 230 229 229 229 228 226 224 222 220 218 216 214 212 210 210 210 210 210 209 208 208 208 207 207 208 209 209 209 208 208 209 208
9 11 11 11 11 9 7 4 3 3 2 0 355 348 340 328 310 292 277 268 263 259 255 253 250 246 242 239 235 234 232 230 229 228 227 225 223 222 220 219 217 214 211 209 209 210 210 209 208 208 208 208 208 207 207 208 208 209 209 210 209 208
10 8 6 4 3 4 4 3 2 2 1 1 358 354 350 344 335 318 298 282 271 264 258 254 251 247 244 242 240 238 236 232 229 228 226 224 222 221 219 217 215 213 211 210 210 210 210 210 208 207 207 207 208 207 207 207 208 208 210 211 210 209
4 2 360 359 357 357 358 359 360 359 359 359 357 355 352 349 346 337 322 304 286 274 266 260 254 250 247 245 244 242 239 234 231 228 227 224 222 220 218 216 214 212 211 211 211 210 210 210 209 208 208 207 207 207 207 208 208 209 209 210 210 210
359 356 354 352 351 352 352 353 355 356 356 357 355 354 353 351 349 344 333 318 301 287 277 269 262 257 253 250 247 245 241 236 232 229 227 225 222 220 218 216 214 213 212 211 210 210 210 210 209 209 209 208 207 207 207 207 207 207 208 209 209 210
352 350 348 348 347 348 349 349 351 352 352 353 353 353 352 351 350 347 342 331 314 299 289 281 272 265 260 256 252 248 243 238 233 230 227 225 222 221 219 217 215 214 212 211 209 209 209 209 209 209 209 208 207 207 206 207 206 206 206 207 208 209
345 344 342 344 345 345 346 347 348 349 350 350 350 350 350 349 349 348 347 344 335 322 307 294 282 273 266 261 256 251 245 240 235 231 227 224 223 222 220 218 216 214 212 211 210 208 207 208 209 210 209 208 207 206 206 206 205 205 204 204 205 207
337 336 339 343 344 344 344 344 345 346 347 347 347 347 347 347 347 348 349 349 347 341 329 312 295 283 273 265 258 253 247 242 237 231 227 225 224 222 220 217 215 214 213 211 210 208 207 208 210 211 211 210 208 206 205 205 205 204 204 203 202 203
336 338 341 341 341 342 342 341 341 342 344 345 345 344 345 345 345 345 346 347 347 346 342 331 315 297 283 272 263 255 248 242 236 231 228 225 223 221 219 216 215 215 214 212 210 209 209 210 210 211 211 211 210 208 205 205 205 204 203 203 201 201
337 339 340 339 340 341 341 339 340 341 342 341 340 341 342 344 343 342 342 344 346 347 346 341 330 315 297 282 269 259 250 242 236 231 228 225 222 219 217 216 216 215 214 213 212 212 212 212 212 211 211 211 211 210 207 205 204 203 203 203 202 201
331 335 336 337 338 338 338 338 338 339 339 336 335 337 340 341 342 340 340 341 343 345 346 344 338 327 311 295 279 265 254 244 237 232 228 225 222 219 216 216 216 215 213 213 213 214 214 214 213 212 211 210 211 210 208 206 205 204 203 203 202 202
326 331 333 333 334 335 335 335 335 334 333 333 332 334 336 337 338 338 337 338 340 341 343 344 341 333 323 310 293 276 261 249 241 235 231 226 222 218 217 217 215 214 214 214 214 215 216 215 214 213 211 210 210 210 209 207 206 205 205 204 203 202
325 329 329 329 331 332 332 333 333 332 331 332 332 332 333 334 333 334 336 336 337 338 339 340 339 335 329 320 306 287 270 257 247 240 233 227 223 220 218 217 215 215 214 214 214 215 217 217 215 212 211 209 209 209 209 207 205 205 205 205 205 204
321 323 323 325 327 328 328 330 331 330 328 329 329 329 331 331 330 332 334 334 335 335 334 335 335 334 331 325 313 296 279 266 255 246 237 230 226 223 221 219 217 216 215 214 213 214 217 218 215 212 210 208 207 207 206 205 204 203 203 203 204 203
314 317 319 321 323 324 326 328 330 328 324 324 326 328 329 329 328 330 332 332 331 331 331 331 331 330 330 325 315 301 287 274 262 253 243 233 228 225 222 221 220 218 216 214 212 213 215 216 213 211 208 206 204 202 201 201 200 200 200 201 201 200
309 312 313 315 317 320 323 326 326 324 320 321 325 327 327 327 328 330 330 328 326 327 327 328 327 326 325 321 313 303 293 282 270 260 249 238 233 230 226 224 222 220 218 216 214 213 213 214 211 208 206 203 200 199 199 197 195 196 197 196 196 197
306 306 307 310 313 316 321 324 323 321 320 321 324 325 324 325 326 328 326 323 322 322 322 324 324 322 319 316 312 306 298 288 278 266 253 243 237 235 232 227 223 221 220 218 217 215 214 213 210 206 204 201 198 198 197 194 192 192 192 189 189 192
306 305 305 307 308 312 317 320 319 319 319 321 322 321 320 322 323 323 322 319 317 318 319 320 321 320 318 315 311 307 301 293 282 270 257 247 241 237 234 229 224 223 222 219 218 216 214 213 209 204 202 199 197 199 197 192 191 190 187 185 185 186
304 303 302 303 307 310 315 318 317 315 316 317 316 315 317 319 320 320 319 316 314 315 317 317 318 318 318 316 313 308 301 293 283 271 260 250 242 236 233 229 225 223 223 220 218 215 214 214 210 205 202 199 198 199 197 193 192 191 187 185 187 188
307 304 303 304 307 310 314 316 313 310 312 310 307 311 316 317 318 319 317 313 311 313 315 315 315 315 315 315 314 307 298 291 282 269 259 249 241 234 231 228 223 221 221 219 217 215 213 213 212 207 203 201 200 200 199 197 196 194 190 188 188 190
303 301 302 304 306 309 312 313 310 308 307 303 304 312 316 316 317 317 313 310 309 311 313 313 312 312 311 311 310 304 295 288 278 265 254 244 237 231 229 227 222 219 218 215 214 214 212 211 211 209 205 202 202 202 200 200 200 197 194 193 191 192
298 299 300 301 303 305 308 309 308 306 303 302 308 316 316 315 316 314 310 309 309 309 310 310 309 307 305 304 303 297 289 282 272 260 250 240 232 227 227 226 221 216 215 214 213 213 211 209 210 209 205 204 205 204 199 198 200 200 198 197 195 193
296 297 298 298 299 301 302 303 303 300 298 302 311 316 315 314 313 310 308 308 308 308 308 308 306 303 299 298 295 288 281 275 265 253 243 233 226 223 224 223 219 218 218 217 214 213 210 208 207 208 206 204 206 207 200 194 198 202 201 199 197 195
296 294 293 295 296 297 298 299 297 294 295 302 311 314 313 311 309 307 306 306 305 306 306 305 303 301 298 294 288 281 275 268 258 249 239 228 222 221 222 221 219 219 222 223 220 216 210 206 205 207 207 205 206 209 204 195 195 198 198 197 195 191
294 291 291 291 293 295 297 298 296 295 297 303 309 311 310 309 307 305 303 302 302 303 303 302 299 297 296 293 286 277 271 263 253 245 237 227 220 217 218 219 219 218 220 224 223 216 209 206 205 205 206 205 205 209 207 198 191 190 189 190 188 182
288 288 288 287 289 293 296 295 295 296 300 304 306 308 308 305 304 303 300 298 298 297 296 295 294 292 292 290 283 273 266 258 248 240 236 230 223 217 215 215 216 217 219 220 219 210 202 203 206 206 204 201 200 204 205 196 189 186 184 183 180 175
286 287 286 286 288 293 294 294 295 296 299 302 304 306 306 302 301 300 297 296 296 293 291 290 288 286 286 285 282 274 266 259 250 243 242 239 233 227 223 220 219 221 220 219 217 207 197 199 208 209 205 201 199 200 202 196 188 185 182 178 175 171
286 287 286 286 290 293 294 294 296 296 298 300 302 303 301 298 297 296 293 293 294 292 291 289 285 283 282 282 281 278 272 266 257 248 245 245 242 237 232 229 229 229 225 222 222 217 210 211 214 209 202 200 199 200 202 197 189 184 178 171 169 167
290 289 287 289 292 294 294 294 295 295 297 300 301 300 297 292 291 290 288 289 289 289 290 288 285 284 282 279 279 278 275 271 264 253 247 245 243 239 234 232 232 233 229 225 225 224 221 220 217 205 196 198 199 200 201 197 187 182 177 169 166 166
294 292 291 293 295 295 294 293 293 294 298 300 300 297 293 288 285 282 283 285 285 285 284 282 280 279 276 273 273 272 267 265 264 260 252 245 241 239 236 233 231 230 227 224 223 222 219 214 208 200 196 198 198 199 200 194 183 178 175 171 169 170
295 294 294 294 295 295 294 292 291 294 298 299 297 293 288 285 281 279 279 281 281 279 276 274 275 276 274 273 274 271 265 259 256 257 257 247 239 237 236 234 231 229 225 222 221 219 216 210 203 199 198 198 197 198 199 194 184 177 174 173 172 172
295 294 294 294 294 293 291 289 290 294 297 296 294 290 284 282 280 279 278 278 274 271 271 272 276 280 282 283 282 277 270 261 251 247 249 245 235 233 233 231 229 228 226 224 221 217 212 206 201 199 198 198 197 199 198 194 186 181 178 177 176 172
293 292 292 292 291 289 287 287 289 293 295 293 292 289 284 282 281 281 281 279 276 276 279 281 282 282 279 276 273 269 265 260 251 244 239 235 229 224 223 223 222 222 222 222 221 217 211 205 200 198 198 198 198 199 196 190 184 182 181 178 175 172
291 290 290 290 288 285 284 285 289 293 294 292 291 288 285 283 282 282 282 282 282 283 283 281 278 273 268 265 263 262 259 254 248 242 236 233 229 225 222 219 217 216 217 219 219 216 211 205 200 198 199 199 198 197 194 189 183 181 178 172 171 173